[[{"header":{"parameterUnit":"m.s-1","parameterCategory":1,"la1":30.2991,"la2":30.254,"lo1":-89.0895,"lo2":-89.0444,"dy":0.0017,"dx":0.0017,"nx":28,"ny":28,"refTime":"2024-12-26T03:00:00:Z","depth":0,"parameterNumber":2,"parameterNumberName":"U-component_of_WINDS"},"data":[0,0,0,0,0,0,0,0,0,0,0,0,0,0,0,0,0,0,0,0,0,0,0,0,0,0,0,0,0,0,0,0,0,0,0,0,0,0,0,0,0,0,0,0,0,0,0,0,0,0,0,0,0,0,0,0,0,0,-7.049,-7.0491,0,-7.0579,-7.058,-7.0581,-7.0543,-7.0541,-7.0539,-7.0537,-7.0624,-7.0629,-7.0633,0,0,0,0,0,0,0,0,0,0,0,0,0,-7.0286,-7.029,-7.049,-7.0491,-7.0492,-7.0579,-7.058,-7.0582,-7.0543,-7.0541,-7.0538,-7.0536,-7.0623,-7.0628,-7.0633,0,0,0,0,0,0,0,0,0,0,0,0,0,-7.0374,-7.0291,-7.049,-7.0484,-7.0484,-7.0579,-7.058,-7.0582,-7.0544,-7.0541,-7.0537,-7.0534,-7.0621,-7.0628,-7.0634,-7.0739,0,0,-7.0654,-7.0657,0,0,0,0,0,0,0,0,-7.037,-7.0382,-7.0484,-7.0484,-7.0485,-7.0547,-7.054,-7.0634,-7.0545,-7.0521,-7.0536,-7.0533,-7.0601,-7.0609,-7.0633,-7.0743,-7.0747,-7.0655,-7.0659,-7.0661,-7.0663,0,0,0,0,0,0,0,-7.0363,-7.0378,-7.0525,-7.0485,-7.0486,-7.0476,-7.0485,-7.0558,-7.0578,-7.0523,-7.052,-7.0532,-7.0601,-7.0626,-7.0634,-7.0748,-7.0654,-7.066,-7.0664,-7.0667,-7.0951,-7.0954,0,0,0,0,0,0,-7.0358,-7.0373,-7.0522,-7.0528,-7.0418,-7.0483,-7.0493,-7.053,-7.0577,-7.0581,-7.0534,-7.0529,-7.0617,-7.0627,-7.0637,-7.0763,-7.0661,-7.0667,-7.0671,-7.0947,-7.0951,-7.0955,0,0,0,0,0,0,-7.0353,-7.0371,-7.0519,-7.045,-7.0468,-7.049,-7.0532,-7.0534,-7.0559,-7.0586,-7.0589,-7.0557,-7.0615,-7.0628,-7.0715,-7.0765,-7.067,-7.0676,-7.0943,-7.0948,-7.0953,-7.1015,0,0,0,0,0,0,-7.0348,-7.037,-7.041,-7.0451,-7.0472,-7.0595,-7.0535,-7.0538,-7.0571,-7.0565,-7.0608,-7.0612,-7.0613,-7.0705,-7.0721,-7.0772,-7.0681,-7.0938,-7.0945,-7.0952,-7.1008,-7.1021,-7.1033,0,0,0,0,0,-7.034,-7.0422,-7.0412,-7.043,-7.0522,-7.0598,-7.0609,-7.061,-7.0575,-7.0615,-7.0633,-7.061,-7.0759,-7.0714,-7.0732,-7.0786,-7.0935,-7.0943,-7.0951,-7.1002,-7.1019,-7.1033,0,0,0,0,0,0,-7.0384,-7.0427,-7.0416,-7.0514,-7.0553,-7.0591,-7.0641,-7.0628,-7.0676,-7.0668,-7.0667,-7.0677,-7.0766,-7.0786,-7.0735,-7.0891,-7.0841,-7.0853,-7.0874,-7.089,-7.0902,-7.0894,-7.0687,0,0,0,0,0,-7.0406,-7.0464,-7.0499,-7.0582,-7.0602,-7.0619,-7.0652,-7.065,-7.0689,-7.0704,-7.0728,-7.0766,-7.0822,-7.0858,-7.091,-7.1013,-7.1021,-7.1059,-7.1072,-7.1082,-7.1091,-7.1147,-7.1164,-7.0982,-7.0982,-7.0982,0,0,-7.0449,-7.048,-7.0517,-7.0591,-7.0621,-7.0681,-7.0632,-7.0697,-7.0741,-7.0714,-7.0796,-7.0816,-7.0859,-7.0954,-7.0997,-7.0973,-7.1144,-7.1092,-7.11,-7.1103,-7.1157,-7.1174,-7.1189,-7.0988,-7.0987,-7.0986,0,0,-7.0559,-7.0589,-7.0662,-7.0694,-7.074,-7.0751,-7.0769,-7.0811,-7.0823,-7.0907,-7.0888,-7.0941,-7.1036,-7.1068,-7.1096,-7.1223,-7.1204,-7.1241,-7.1304,-7.1358,-7.1373,-7.1385,-7.1429,-7.1445,-7.1251,-7.1251,-7.1251,0,-7.0606,-7.0696,-7.07,-7.0768,-7.0801,-7.0783,-7.0856,-7.0886,-7.0947,-7.097,-7.0943,-7.1064,-7.1091,-7.1193,-7.1225,-7.125,-7.1269,-7.1233,-7.1371,-7.1383,-7.1395,-7.1437,-7.1453,-7.1255,-7.1254,-7.1254,-7.1254,0,-7.0752,-7.0815,-7.0869,-7.0929,-7.097,-7.1039,-7.1054,-7.1094,-7.1091,-7.1105,-7.1192,-7.1226,-7.1284,-7.131,-7.1306,-7.1412,-7.1396,-7.137,-7.1319,-7.1416,-7.1455,-7.1471,-7.1261,-7.1259,-7.1258,-7.1257,0,0,-7.0885,-7.0952,-7.0971,-7.0999,-7.1051,-7.11,-7.117,-7.123,-7.1264,-7.1308,-7.1366,-7.145,-7.1427,-7.146,-7.146,-7.1509,-7.1606,-7.1477,-7.1478,-7.1498,-7.1724,-7.174,-7.1759,-7.1596,-7.1599,-7.1602,-7.172,0,-7.0997,-7.112,-7.1128,-7.1239,-7.1297,-7.1284,-7.1345,-7.1384,-7.1401,-7.1453,-7.1471,-7.153,-7.1497,-7.1516,-7.1564,-7.1584,-7.1651,-7.1576,-7.1648,-7.165,-7.1633,-7.1779,-7.1796,-7.1905,-7.1735,-7.1738,-7.174,0,-7.1141,-7.1192,-7.131,-7.1356,-7.1381,-7.1435,-7.1492,-7.1542,-7.1587,-7.1596,-7.1635,-7.163,-7.1702,-7.1653,-7.1752,-7.1701,-7.1732,-7.1747,-7.1752,-7.1754,-7.1698,-7.1783,-7.194,-7.1955,-7.1764,-7.1762,-7.1761,0,-7.1224,-7.1322,-7.1405,-7.143,-7.1487,-7.1526,-7.1551,-7.1593,-7.1629,-7.1679,-7.1702,-7.176,-7.1791,-7.1835,-7.1846,-7.181,-7.1945,-7.1897,-7.1953,-7.1953,-7.1978,-7.1975,-7.2138,-7.2004,-7.2004,-7.2004,-7.2004,0,-7.1344,-7.1416,-7.1443,-7.1493,-7.1574,-7.1584,-7.1664,-7.1687,-7.1725,-7.178,-7.1773,-7.1824,-7.1837,-7.1892,-7.1901,-7.1981,-7.1996,-7.2004,-7.2005,-7.2003,-7.2001,-7.2019,-7.201,-7.2008,-7.2007,-7.2006,-7.2006,0,-7.1447,-7.1468,-7.1558,-7.1606,-7.162,-7.1677,-7.1718,-7.1767,-7.1786,-7.1855,-7.1872,-7.19,-7.1964,-7.1981,-7.2057,-7.2064,-7.2157,-7.2153,-7.2142,-7.214,-7.2195,-7.2188,-7.2372,-7.2396,-7.225,-7.2251,-7.2252,0,-7.152,-7.1576,-7.1631,-7.1668,-7.1696,-7.1756,-7.1794,-7.1808,-7.1847,-7.1905,-7.1947,-7.201,-7.2061,-7.2164,-7.2191,-7.2249,-7.2244,-7.2305,-7.2252,-7.2249,-7.2241,-7.2236,-7.2241,-7.2313,-7.2314,-7.2316,-7.2317,0,-7.1648,-7.1657,-7.1712,-7.1772,-7.1818,-7.1866,-7.1911,-7.1942,-7.1963,-7.2008,-7.2074,-7.2114,-7.2194,-7.2256,-7.2317,-7.2342,-7.2333,-7.2334,-7.235,-7.2345,-7.2336,-7.2339,-7.2165,-7.2328,-7.2327,-7.2326,-7.2326,-7.2325,-7.1736,-7.1785,-7.1832,-7.1895,-7.1932,-7.1975,-7.2024,-7.205,-7.2106,-7.2172,-7.2178,-7.225,-7.2296,-7.2376,-7.2406,-7.2462,-7.2443,-7.2466,-7.2471,-7.2476,-7.2479,-7.2331,-7.2473,-7.2473,-7.2473,-7.2472,-7.2472,0,-7.186,-7.1892,-7.195,-7.2015,-7.2065,-7.2056,-7.2107,-7.2148,-7.2212,-7.2257,-7.2308,-7.2385,-7.2447,-7.2481,-7.2543,-7.2582,-7.2579,-7.2597,-7.2592,-7.2598,-7.2493,-7.2472,-7.2598,-7.2598,-7.2598,-7.2598,-7.2598,-7.2598,-7.193,-7.2012,-7.2028,-7.2129,-7.216,-7.2231,-7.2261,-7.2301,-7.2337,-7.2424,-7.2476,-7.2499,-7.254,-7.2605,-7.2662,-7.2671,-7.2692,-7.2712,-7.2718,-7.2618,-7.2605,-7.2593,-7.2573,-7.2718,-7.2718,-7.2818,-7.2818,-7.2819]},{"header":{"parameterUnit":"m.s-1","parameterCategory":1,"la1":30.2991,"la2":30.254,"lo1":-89.0895,"lo2":-89.0444,"dy":0.0017,"dx":0.0017,"nx":28,"ny":28,"refTime":"2024-12-26T03:00:00:Z","depth":0,"parameterNumber":3,"parameterNumberName":"V-component_of_WINDS"},"data":[0,0,0,0,0,0,0,0,0,0,0,0,0,0,0,0,0,0,0,0,0,0,0,0,0,0,0,0,0,0,0,0,0,0,0,0,0,0,0,0,0,0,0,0,0,0,0,0,0,0,0,0,0,0,0,0,0,0,2.2343,2.2343,0,2.236,2.236,2.236,2.2372,2.2372,2.2372,2.2372,2.2385,2.2385,2.2385,0,0,0,0,0,0,0,0,0,0,0,0,0,2.232,2.2321,2.2343,2.2343,2.2343,2.236,2.236,2.236,2.2372,2.2372,2.2372,2.2373,2.2385,2.2385,2.2385,0,0,0,0,0,0,0,0,0,0,0,0,0,2.2333,2.2321,2.2343,2.2351,2.2352,2.236,2.236,2.236,2.2372,2.2372,2.2372,2.2373,2.2384,2.2385,2.2385,2.2384,0,0,2.2386,2.2386,0,0,0,0,0,0,0,0,2.2332,2.2334,2.235,2.2351,2.2352,2.2364,2.2356,2.2368,2.2372,2.2364,2.2372,2.2373,2.2377,2.2378,2.2381,2.2384,2.2385,2.2386,2.2386,2.2386,2.2386,0,0,0,0,0,0,0,2.2331,2.2333,2.2349,2.235,2.2351,2.2354,2.2356,2.2359,2.2369,2.2365,2.2366,2.2368,2.2378,2.238,2.2381,2.2385,2.2386,2.2386,2.2387,2.2387,2.2393,2.2393,0,0,0,0,0,0,2.2329,2.2332,2.2349,2.235,2.2342,2.2354,2.2357,2.236,2.237,2.2371,2.2368,2.2369,2.238,2.2381,2.2382,2.2384,2.2386,2.2387,2.2387,2.2393,2.2393,2.2393,0,0,0,0,0,0,2.2329,2.2331,2.2348,2.2341,2.2344,2.2355,2.2358,2.236,2.2363,2.2372,2.2373,2.2369,2.238,2.2381,2.2385,2.2384,2.2387,2.2387,2.2393,2.2393,2.2393,2.2385,0,0,0,0,0,0,2.2328,2.233,2.233,2.2341,2.2344,2.2351,2.2358,2.236,2.2364,2.2365,2.2373,2.2374,2.238,2.2384,2.2385,2.2385,2.2387,2.2393,2.2393,2.2393,2.2386,2.2385,2.2385,0,0,0,0,0,2.2327,2.2325,2.233,2.2332,2.2344,2.2351,2.2352,2.236,2.2364,2.2364,2.237,2.2374,2.2384,2.2384,2.2385,2.2385,2.2393,2.2393,2.2393,2.2386,2.2385,2.2385,0,0,0,0,0,0,2.231,2.2326,2.2332,2.2333,2.2341,2.2353,2.2352,2.2359,2.2364,2.2364,2.2373,2.2375,2.2378,2.2382,2.2381,2.2387,2.2389,2.2389,2.2384,2.2383,2.2383,2.2381,2.2388,0,0,0,0,0,2.2307,2.2312,2.2326,2.2326,2.233,2.2341,2.2344,2.235,2.2358,2.236,2.2367,2.2373,2.2378,2.2381,2.2385,2.2387,2.239,2.2388,2.2387,2.2387,2.2386,2.2391,2.2391,2.2392,2.2392,2.2392,0,0,2.2299,2.2309,2.2311,2.2323,2.2329,2.2335,2.2343,2.2347,2.2351,2.236,2.2365,2.2371,2.2378,2.2382,2.2383,2.2385,2.2387,2.2387,2.2386,2.2386,2.2391,2.2391,2.2391,2.2392,2.2392,2.2392,0,0,2.2288,2.2296,2.2298,2.2306,2.2318,2.2326,2.2327,2.2339,2.2344,2.235,2.2358,2.2363,2.237,2.2377,2.2381,2.238,2.2384,2.2381,2.2377,2.2382,2.2382,2.2382,2.2383,2.2384,2.2381,2.2381,2.2381,0,2.2277,2.2286,2.2298,2.2304,2.231,2.2322,2.2326,2.2332,2.2344,2.2348,2.235,2.2363,2.2369,2.2376,2.2376,2.2378,2.2381,2.2379,2.2381,2.2381,2.2381,2.2383,2.2383,2.238,2.238,2.238,2.238,0,2.2273,2.228,2.2281,2.2295,2.2302,2.2306,2.2319,2.2324,2.2331,2.234,2.2347,2.2355,2.2364,2.2366,2.2371,2.2375,2.2376,2.238,2.2383,2.2381,2.2383,2.2383,2.238,2.238,2.238,2.238,0,0,2.2247,2.2274,2.2274,2.2283,2.2299,2.2304,2.231,2.2322,2.2327,2.2336,2.2342,2.2351,2.2356,2.2361,2.2368,2.2372,2.2374,2.2375,2.2376,2.2376,2.2381,2.2379,2.238,2.2378,2.2378,2.2378,2.2382,0,2.224,2.2254,2.2268,2.2276,2.2284,2.2299,2.2304,2.2315,2.2325,2.2333,2.2342,2.235,2.2354,2.2358,2.2363,2.2372,2.2375,2.2372,2.2384,2.2384,2.2382,2.238,2.2377,2.238,2.2382,2.2382,2.2382,0,2.2232,2.2245,2.2255,2.2276,2.2279,2.2284,2.2298,2.2306,2.232,2.2326,2.2335,2.2344,2.2352,2.2356,2.2368,2.2366,2.2372,2.2378,2.2379,2.238,2.2383,2.2382,2.238,2.2381,2.2383,2.2383,2.2383,0,2.2216,2.2235,2.2245,2.2251,2.2274,2.2278,2.2288,2.2302,2.231,2.2322,2.2327,2.2339,2.2346,2.2355,2.2367,2.2368,2.238,2.2383,2.2386,2.2386,2.2387,2.2387,2.2387,2.239,2.239,2.239,2.239,0,2.2206,2.2212,2.2238,2.2244,2.2252,2.2269,2.2277,2.2287,2.2301,2.231,2.2322,2.233,2.2346,2.2356,2.2365,2.2376,2.2378,2.2385,2.2387,2.2384,2.2383,2.2388,2.2388,2.239,2.239,2.239,2.239,0,2.2188,2.2205,2.2217,2.224,2.2247,2.2252,2.2272,2.2278,2.2291,2.2302,2.2305,2.2324,2.2337,2.2351,2.2367,2.2374,2.2385,2.2387,2.2381,2.2382,2.2385,2.2385,2.2389,2.2391,2.2391,2.2391,2.2391,0,2.218,2.2186,2.2212,2.222,2.2231,2.2243,2.2252,2.227,2.2279,2.2299,2.2304,2.2319,2.2331,2.2352,2.2366,2.238,2.2384,2.2384,2.2385,2.2384,2.2386,2.2386,2.2388,2.2383,2.2383,2.2383,2.2383,0,2.2167,2.2177,2.219,2.2209,2.2221,2.2235,2.225,2.2255,2.2276,2.2286,2.2302,2.2312,2.2332,2.2347,2.2364,2.2373,2.2382,2.2383,2.2385,2.2382,2.2378,2.2382,2.238,2.2382,2.2382,2.2383,2.2383,2.2383,2.2155,2.2162,2.2183,2.2199,2.2214,2.2229,2.2238,2.2253,2.2267,2.2286,2.2296,2.2312,2.233,2.2354,2.2364,2.2377,2.2379,2.2381,2.2382,2.2382,2.2382,2.2377,2.238,2.238,2.238,2.238,2.238,0,2.2143,2.2159,2.2174,2.2197,2.221,2.2221,2.2239,2.2249,2.2264,2.2281,2.2295,2.2315,2.2331,2.2349,2.2366,2.2374,2.2378,2.2378,2.2377,2.238,2.2378,2.2376,2.2374,2.2374,2.2374,2.2374,2.2374,2.2374,2.2139,2.2154,2.2167,2.219,2.2205,2.2223,2.2233,2.2248,2.2262,2.2284,2.2299,2.2312,2.233,2.235,2.2366,2.2371,2.2377,2.2375,2.2381,2.2379,2.238,2.238,2.2378,2.2376,2.2376,2.2383,2.2383,2.2383]}]]